User: anonymous   Login
Location: Newark
(44.6768°N, 22.5302°E)
Time: 00:58:11
(UTC+00:00)
Language:

DX 1 - Orbit

View from above orbital plane
View from above orbital plane
View from above satellite
View from above satellite

Ground track
Ground track

The orbit data is extracted from the following two-line orbital elements,

1 40071U 14037C   22180.49078851  .00000563  00000-0  78581-4 0  9999
2 40071  98.4083  49.8275 0007146 282.1159  77.9245 14.81885745431123
Epoch (UTC): 29 June 2022 11:46:44
Eccentricity: 0.0007146
inclination: 98.4083°
perigee height: 618 km
apogee height: 628 km
right ascension of ascending node: 49.8275°
argument of perigee: 282.1159°
revolutions per day: 14.81885745
mean anomaly at epoch: 77.9245°
orbit number at epoch: 43112

The dashed part of the orbit path shows where the satellite is in the earth's shadow,  

DLR